Regional Weather Roundup
Issued by NWS

Home | Current Version | Previous Version | Graphics & Text | Print | Product List | Glossary On
Versions: 1 2 3 4 5 6 7 8 9 10 11 12 13 14 15 16 17 18 19 20 21 22 23 24 25 26 27 28 29 30 31 32 33 34 35 36 37 38 39 40 41 42 43 44 45 46 47 48 49 50
000
ASUS43 KLOT 030702
RWRIL

ILLINOIS REGIONAL WEATHER ROUNDUP
NATIONAL WEATHER SERVICE CHICAGO/ROMEOVILLE IL
200 AM CDT SUN MAY 03 2015

NOTE: "FAIR" INDICATES FEW OR NO CLOUDS BELOW 12,000 FEET WITH NO
SIGNIFICANT WEATHER AND/OR OBSTRUCTIONS TO VISIBILITY.

* THESE STATIONS ARE NOT UNDER NWS QUALITY CONTROL. THEY ALSO MAY NOT
  REPORT WEATHER SUCH AS PRECIPITATION OR FOG.

ILZ001-002-007-009-015-016-024-030800-
NORTHWEST ILLINOIS

CITY           SKY/WX    TMP DP  RH WIND       PRES   REMARKS
MOLINE         CLOUDY    59  47  64 E3        29.93F
STERLING*      MOCLDY    54  46  76 CALM      29.96S
$$

ILZ003-004-008-010-011-017-018-030800-
NORTH CENTRAL ILLINOIS

CITY           SKY/WX    TMP DP  RH WIND       PRES   REMARKS
ROCKFORD       CLOUDY    59  43  55 S7        29.98S
$$

ILZ005-006-012>014-019>023-030800-
NORTHEAST ILLINOIS

CITY           SKY/WX    TMP DP  RH WIND       PRES   REMARKS
CHICAGO-OHARE  MOCLDY    60  40  47 SW5       29.97S
CHICAGO-MIDWAY MOCLDY    61  40  45 S6        29.98S
AURORA         MOCLDY    53  41  63 CALM      29.98S
WAUKEGAN       PTCLDY    57  40  52 SW7       29.95F
DUPAGE AIRPORT PTCLDY    54  42  64 CALM      29.97S
WHEELING       MOCLDY    55  41  59 S5        29.98S
NORTHERLY ISL    N/A     64  37  36 S5          N/A
$$

LMZ740>746-030800-
SOUTHERN LAKE MICHIGAN

STATION/POSITION SKY/WX   TEMP    WIND        PRES    VSBY  WAVE
                          AIR SEA DIR/SP/G                  HT/PER
                          (F)     (DEG/KT/KT) (MB)    (MI)  (FT/S)
HARRISON CRIB              65     190/ 16/ 17   N/A
BURNHAM HARBOR             64     190/  7/ 11   N/A
CALUMET HARBOR             63     210/  7/  8   N/A
BURNS HARBOR               62     190/ 10/ 13 1016.3R
MICHIGAN CITY              64     170/ 12/ 13   N/A
MICHIGAN CITY 6N           57 51  210/  8/  8   N/A           0
ST. JOSEPH                 56 49  230/  8/  8   N/A           1
$$

ILZ025>027-034>036-040-047-049-050-058-095>099-030800-
WEST-CENTRAL ILLINOIS

CITY           SKY/WX    TMP DP  RH WIND       PRES   REMARKS
QUINCY         PTCLDY    61  47  59 S9        29.95F
$$

ILZ028>032-037-038-041>044-048-051>054-059>061-030800-
CENTRAL ILLINOIS

CITY           SKY/WX    TMP DP  RH WIND       PRES   REMARKS
DECATUR        CLOUDY    62  45  53 S7        30.02S
PEORIA         PTCLDY    59  46  62 S3        29.98S
SPRINGFIELD    CLOUDY    64  45  49 S14       29.99F
TAYLORVILLE    NOT AVBL
$$

ILZ033-039-045-046-055>057-062-063-030800-
EAST-CENTRAL ILLINOIS

CITY           SKY/WX    TMP DP  RH WIND       PRES   REMARKS
CHAMPAIGN      CLOUDY    63  44  50 S13       30.02S
MATTOON        CLOUDY    61  46  57 S6        30.02S
$$

ILZ079-100>102-030800-
SOUTHWEST ILLINOIS

CITY           SKY/WX    TMP DP  RH WIND       PRES   REMARKS
BELLEVILLE     CLOUDY    61  49  65 CALM      30.00S
CAHOKIA*       CLOUDY    64  46  52 SE3       30.00S
$$

ILZ064>066-069>071-074>076-080>082-084>086-088>090-092>094-030800-
SOUTH-CENTRAL ILLINOIS

CITY           SKY/WX    TMP DP  RH WIND       PRES   REMARKS
CARBONDALE     MOCLDY    55  48  77 CALM      30.03S
MT. VERNON     CLOUDY    55  48  76 CALM      30.04S
$$

ILZ067-068-072-073-078-083-087-091-030800-
SOUTHEAST ILLINOIS

CITY           SKY/WX    TMP DP  RH WIND       PRES   REMARKS
LAWRENCEVILLE  MOCLDY    58  49  72 SW5       30.05S
$$

ABBREVIATIONS USED IN REMARKS
   TC - TEMPERATURE IN CELSIUS
  WCI - WIND CHILL INDEX
   HX - HEAT INDEX
  VSB - VISIBILITY
$$




USA.gov is the U.S. government's official web portal to all federal, state and local government web resources and services.